SL-14 R/B

Satellite information

Favourite Embed

Satellite Type and Status

ROCKET BODYIN ORBIT

Key statistics

Satellite SL-14 R/B at a glance.

Uptime

13456

Days in orbit

Revolutions

≈ 14.8

Per day

Orbit

LEO

Low Earth Orbit

Inclination

82.5

Latest

Satellite identification and parameters

Extended collection of information and parameters for SL-14 R/B.

Object identification

Identified? True

Debris? False

Object name: SL-14 R/B

International designator: 1988-056B

Object number (NORAD): 19275

Object ID (CCSDS): 19275

Country: COMMONWEALTH OF INDEPENDENT STATES (CIS)

Current information (Y/N): Y

RCS size: LARGE

Orbital parameters

Period: 96.987 minutes

Inclination: 82.5138 deg

SMA: 6992.557 km

Apoapsis: 628.964 km

Periapsis: 599.879 km

RAAN: 152.2484 deg

Eccentricy: 0.0020797

Argument of periapsis: 73.8309 deg

Mean anomaly: 286.5193 deg

Mean motion: 14.84734387 rev/day

Mean motion (dot): 0.00000615 rev/day2

B* drag term: 0.000069507 1/REarth

Two-line elements (TLE)

Creation date: May 8, 2025, 3:01 a.m.

Reference frame: TEME

Reference center: EARTH

Epoch: May 7, 2025, 12:26 p.m. UTC

TLE line 0: 0 SL-14 R/B

TLE line 1: 1 19275U 88056B 25127.51871191 .00000615 00000-0 69507-4 0 9994

TLE line 2: 2 19275 82.5138 152.2484 0020797 73.8309 286.5193 14.84734387969236

Live tracking on map

Real-time ground track for satellite SL-14 R/B.

In-orbit conjunctions

A list of the most updated potential collisions computed for object SL-14 R/B.

Target Orbit TCA Probability of collision Miss distance Type
FENGYUN 1C DEB SSO 2025-03-25 07:45:15 0.0001481489 708.0 (m) DEBRIS
CZ-6A DEB SSO 2025-01-24 10:07:41 0.0001188187 243.0 (m) DEBRIS
ORBCOMM FM 1 LEO 2024-11-03 12:14:27 0.0001560896 53.0 (m) PAYLOAD
FENGYUN 1C DEB SSO 2024-07-16 14:43:50 0.0002218309 238.0 (m) DEBRIS

Associated space launch

Ocean observation satellite

SL-14 R/B was lifted into orbit during the mission ‘Tsiklon-3 | Okean-O1 3’, on board a Tsiklon-3 space rocket.

The launch took place on July 5, 1988, 9:45 a.m. from 32/1.

For more information about the launch, click the button.

Launch to space Tsiklon-3 | Okean-O1 3
Tsiklon-3 | Okean-O1 3

Agency: N/A

Status: Launch Successful

Launch date: July 5, 1988, 9:45 a.m. UTC

Rocket: Tsiklon-3

Launch pad: 32/1

Location: Plesetsk Cosmodrome, Russian Federation

...

Latest news about this satellite

There are no fresh news available about this satellite. Check back as we update our databases every day.


Newsletter sign-up

Weekly statistics, charts and insights to help you stay on top of the space industry.